GEFSNGP_500_meanwind_042.txt.gz
Wind_Speed
17 19 21 22 24 25 27 29 32 34 37 40 41 42 43 45 46 47 47 49 50 51 52 54 56 58 60 63 65 67 68 68 68 67 66 65 63 60 58 56 53 50 47 44
19 21 24 25 26 28 30 32 34 37 39 40 42 44 44 45 47 48 50 52 54 56 58 61 63 65 68 70 72 74 74 75 76 75 74 72 70 67 65 63 60 56 52 49
22 24 26 28 28 30 32 34 36 38 40 42 43 44 46 49 52 55 57 60 62 65 67 69 71 74 76 78 80 81 82 82 83 82 81 78 76 73 71 69 66 62 56 51
24 26 28 29 30 32 34 34 36 39 42 44 47 50 53 56 59 61 64 67 70 73 75 76 77 79 80 81 82 83 83 83 84 84 83 81 80 78 76 73 69 65 58 52
26 28 31 30 32 34 36 38 41 43 46 50 53 56 59 63 66 69 72 74 75 75 75 74 73 72 71 71 70 71 72 73 73 73 73 73 72 72 70 68 65 61 56 52
28 29 32 35 36 38 41 44 47 50 53 56 60 63 65 69 72 74 74 73 70 67 64 60 57 55 53 51 50 51 51 52 53 53 53 54 55 55 56 56 56 54 52 49
29 32 34 36 39 41 44 48 52 55 59 62 66 69 71 73 73 71 67 62 57 52 47 43 40 39 37 36 35 35 34 34 33 34 34 35 37 39 40 42 44 46 47 47
32 34 37 40 42 44 48 52 56 60 63 67 70 71 71 69 65 59 53 48 44 39 36 34 33 33 32 31 31 32 31 29 28 28 28 28 27 28 29 31 33 37 41 44
34 36 39 43 46 49 53 56 60 65 68 70 71 69 65 60 54 48 43 39 36 34 33 33 33 34 34 34 34 33 32 30 28 26 26 25 25 26 27 28 29 30 34 40
37 39 42 46 49 53 57 61 65 68 70 70 67 63 57 50 45 41 37 36 36 37 37 37 37 37 37 37 37 36 34 32 30 29 28 27 26 26 26 27 29 29 32 39
40 43 45 48 53 57 61 65 68 69 68 65 61 54 48 43 40 38 37 38 40 41 41 41 41 41 41 40 40 39 37 35 33 31 30 29 27 26 26 26 28 30 32 37
43 46 49 52 56 60 64 67 69 68 65 59 54 48 44 41 40 40 40 42 43 44 45 45 45 44 43 43 42 41 39 37 34 33 31 30 28 27 26 26 28 30 33 35
44 47 50 54 58 62 66 68 68 65 60 54 48 45 44 42 42 43 44 44 46 47 47 47 46 45 44 44 42 40 38 36 34 32 31 29 28 27 26 25 25 28 32 33
46 49 52 56 60 64 67 68 66 61 54 49 46 44 44 44 45 45 46 47 49 49 48 47 46 44 43 41 39 37 36 34 32 31 29 27 27 26 25 24 24 26 29 32
47 51 55 58 62 66 68 68 64 56 50 46 45 45 45 46 46 47 48 49 50 49 47 46 44 42 40 38 36 33 31 30 29 27 26 25 24 24 23 23 23 25 28 33
48 52 56 60 64 67 69 68 62 55 49 45 44 45 46 47 49 49 50 49 49 47 45 43 41 39 36 34 32 29 27 26 25 24 23 22 22 22 22 22 23 26 29 34
50 54 58 62 66 68 69 66 60 53 47 44 45 46 48 50 50 49 48 47 45 44 42 40 37 35 32 29 26 23 22 21 20 20 19 18 19 20 21 23 25 28 32 37
52 56 60 64 68 69 68 63 56 50 46 45 46 48 49 50 49 48 46 43 42 40 39 37 34 31 27 23 20 17 15 15 15 15 15 17 18 20 21 24 28 31 35 40
53 57 60 64 68 69 67 62 53 47 45 46 48 49 50 49 48 46 44 42 40 38 35 33 30 26 22 17 14 11 11 12 13 15 17 18 20 23 25 28 31 35 38 40
53 57 60 64 67 68 66 60 52 46 46 47 48 49 49 48 47 45 43 42 39 36 34 32 27 22 16 10 5 3 7 11 14 17 20 21 24 27 29 31 34 37 39 41
53 57 60 63 66 66 64 58 50 45 45 47 48 48 48 47 45 43 41 39 37 34 33 29 25 19 12 7 5 8 12 17 21 23 24 26 28 30 31 32 35 37 38 40
53 56 59 63 65 65 62 56 49 45 45 46 47 47 46 44 43 41 40 38 35 33 31 27 23 19 15 13 14 17 21 24 26 27 28 30 31 32 32 33 36 37 37 38
53 56 59 62 64 64 61 54 47 44 44 45 45 45 44 43 42 40 39 36 34 32 30 27 23 21 19 19 21 24 26 27 28 29 30 31 32 32 34 34 35 35 36 37
52 55 58 61 63 63 59 52 45 42 41 42 43 43 42 42 39 38 38 35 32 31 29 27 24 23 23 23 24 26 26 27 29 30 31 32 33 33 33 33 34 34 34 34
51 53 56 59 61 61 58 51 44 39 38 39 39 40 40 39 37 35 35 33 30 28 27 26 25 23 23 23 24 25 26 27 29 30 32 32 32 31 31 33 33 31 31 31
50 52 55 58 59 59 56 50 43 37 35 35 36 36 36 36 35 33 32 30 29 27 26 25 25 24 23 23 25 26 27 29 30 31 30 30 30 31 32 32 31 30 30 29
49 51 53 56 57 57 54 48 42 36 33 33 33 33 33 33 32 30 29 27 26 25 25 25 25 24 23 23 25 26 28 29 29 29 29 29 30 30 29 28 28 28 27 26

GEFSNGP_500_meanwind_048.txt.gz
Wind_Speed
12 12 13 15 18 20 24 28 31 34 39 41 43 45 49 51 54 56 59 60 62 63 65 67 68 69 69 70 70 71 71 72 74 75 75 75 75 75 75 75 73 70 67 65
13 13 14 18 20 23 28 32 35 37 41 45 47 50 53 55 58 61 64 65 67 68 70 71 71 71 70 69 69 69 68 69 69 71 72 74 76 77 78 79 78 77 75 72
17 17 18 20 24 27 32 36 39 41 44 48 51 53 55 58 62 65 67 69 71 71 71 69 68 66 64 61 59 56 54 53 53 55 57 60 63 67 70 73 75 76 76 76
21 22 22 25 28 32 35 39 42 44 47 50 53 55 58 62 66 67 68 69 69 68 66 63 60 57 53 50 46 42 39 37 37 36 37 39 41 44 47 51 56 61 65 68
23 24 28 32 33 36 39 43 45 47 50 54 57 60 61 64 66 67 67 66 65 62 58 53 48 45 42 39 37 34 33 33 32 31 31 30 31 31 33 34 37 41 45 50
27 29 32 36 38 40 43 47 50 53 56 59 62 64 64 65 66 66 65 62 58 54 49 44 41 39 37 35 34 34 34 33 33 32 31 30 30 29 28 28 29 31 32 34
29 31 36 37 41 43 45 48 51 53 57 61 63 65 66 66 65 63 60 55 51 48 45 42 40 39 38 38 38 38 38 37 37 36 34 33 31 29 28 27 27 27 26 28
31 33 37 39 42 45 47 50 53 57 60 63 64 66 66 65 62 58 54 50 48 46 45 43 42 42 41 41 42 42 41 40 39 38 36 34 32 30 28 27 25 24 23 24
33 35 38 41 44 47 50 53 57 60 63 65 66 66 65 61 56 52 50 49 48 47 46 45 44 44 45 45 45 44 42 41 40 39 37 35 33 31 29 27 25 24 22 21
34 36 40 43 47 49 52 56 59 62 64 66 66 65 61 56 52 50 49 49 49 49 48 47 47 46 47 46 46 45 44 42 41 39 37 35 33 31 30 28 26 25 23 21
36 40 42 45 48 51 54 57 61 63 65 66 66 62 58 54 52 51 51 51 51 50 49 49 48 48 47 46 45 44 43 41 39 38 35 33 32 31 30 28 27 25 23 22
38 41 44 46 49 53 56 59 62 64 65 65 63 59 54 52 52 53 52 51 51 50 50 49 48 46 45 44 43 41 40 39 38 37 35 33 32 30 29 28 27 25 23 23
39 42 44 47 50 54 57 60 62 65 66 64 60 55 53 53 53 53 52 52 52 51 50 48 46 44 43 42 41 39 37 36 34 33 32 31 30 28 27 26 25 24 23 23
41 43 45 48 51 55 58 61 63 64 64 61 57 54 53 53 54 53 52 52 52 51 49 47 45 42 40 39 37 35 33 31 30 28 27 27 26 25 25 24 24 23 23 22
42 45 47 50 52 55 59 61 63 63 62 58 54 53 53 53 53 53 52 52 51 50 47 44 42 40 38 36 33 30 27 26 24 24 23 23 22 22 21 21 20 20 21 20
42 45 47 50 52 55 59 61 63 64 61 57 54 53 53 53 53 53 52 52 50 47 45 42 40 37 35 32 28 24 22 20 18 16 17 17 17 18 18 18 18 18 19 18
43 45 48 51 53 56 59 61 64 64 60 56 53 52 51 52 52 52 50 49 47 45 43 41 38 35 32 28 24 20 16 14 11 9 10 11 13 14 15 15 16 17 18 19
44 46 49 52 55 57 59 61 63 62 59 55 53 51 51 51 51 51 49 47 45 44 42 39 35 32 28 23 19 14 11 6 3 3 5 7 11 13 14 15 17 18 19 20
44 46 49 52 54 57 59 60 62 61 57 53 51 50 50 49 49 49 47 46 45 43 41 38 35 32 26 21 17 13 9 5 3 3 6 9 12 15 16 16 18 19 20 21
44 46 48 51 54 56 57 59 60 59 56 52 50 48 47 47 47 47 46 45 44 43 40 38 35 31 27 23 20 16 13 11 10 10 11 13 14 15 17 18 21 23 23 24
44 46 48 50 52 55 56 58 59 58 55 51 48 46 45 44 45 45 44 43 42 40 38 36 33 31 28 24 21 20 18 17 17 17 18 18 19 20 21 23 25 26 26 28
43 45 47 49 51 53 55 56 57 56 54 50 45 43 42 41 41 42 42 41 40 38 37 34 33 31 29 26 24 23 22 22 22 22 22 23 24 25 25 27 27 28 30 34
43 45 47 49 50 52 53 54 55 55 52 48 44 41 40 39 39 39 39 38 38 36 35 34 31 29 28 27 26 26 26 26 26 25 25 25 25 26 27 29 30 31 32 33
43 44 46 48 49 50 51 52 53 52 50 47 43 39 37 36 36 36 36 36 35 34 33 32 30 27 27 27 27 28 28 28 28 27 27 27 27 28 30 31 31 32 32 33
43 44 45 47 48 48 49 50 51 50 48 45 41 36 34 33 33 33 33 32 32 31 30 30 29 27 26 26 27 28 28 28 28 28 28 28 28 29 30 31 32 32 31 30
42 43 44 46 46 47 48 48 49 49 46 43 39 34 31 29 29 28 28 27 27 28 27 26 25 24 23 24 24 25 25 26 26 27 27 27 28 29 30 30 29 29 28 27
42 42 43 45 45 46 46 46 47 47 45 42 38 32 28 26 25 24 23 23 23 24 24 23 22 21 21 21 22 22 23 24 24 24 24 24 24 25 25 26 26 26 24 23

GEFSNGP_500_meanwind_054.txt.gz
Wind_Speed
14 16 18 19 19 19 22 26 29 33 36 39 41 43 46 49 52 55 58 61 63 64 65 66 67 67 66 65 63 61 59 56 53 51 49 49 48 49 51 54 57 60 63 65
14 17 18 18 18 21 25 28 31 34 36 39 42 45 48 52 55 58 60 62 63 64 66 66 65 63 61 59 56 53 49 46 43 42 40 38 37 36 36 37 40 44 48 53
14 16 18 18 20 23 27 29 32 35 38 41 44 46 50 54 57 60 61 62 64 64 64 62 60 58 56 53 50 47 44 42 41 39 36 34 32 30 29 29 29 30 33 37
17 18 19 20 23 27 31 32 34 38 41 44 47 49 53 56 59 60 61 62 62 61 59 57 55 53 51 50 47 45 43 42 41 39 36 34 33 32 32 31 30 29 28 28
22 24 25 26 28 31 34 36 38 41 44 47 50 52 52 56 58 59 61 62 61 59 57 55 54 53 51 49 47 46 45 44 42 41 39 38 37 36 35 34 32 31 29 29
25 27 28 29 31 34 37 39 42 44 47 50 53 56 57 58 59 60 61 61 60 58 56 55 53 52 51 50 48 47 46 45 44 42 41 40 39 39 37 36 34 33 31 30
25 27 29 31 33 36 38 41 44 47 51 54 57 60 61 60 60 61 61 59 58 56 55 54 53 52 51 50 48 47 46 43 42 42 42 41 39 38 37 36 35 33 31 29
26 29 31 33 35 37 40 43 47 50 53 56 58 60 60 59 60 60 58 56 56 56 54 54 53 52 51 49 48 46 44 42 41 40 41 40 39 38 37 36 34 33 31 29
27 30 32 34 37 40 44 46 49 52 54 57 59 60 59 59 59 58 57 56 56 56 55 53 52 51 49 47 46 44 42 40 38 37 37 37 37 37 36 35 33 31 30 28
28 30 33 36 39 42 44 46 49 52 55 57 60 60 58 58 58 57 56 56 56 55 54 52 50 49 47 45 44 41 39 36 35 34 33 33 34 34 34 33 31 30 28 27
28 31 33 36 39 41 43 46 50 52 55 57 60 59 58 58 57 56 56 56 56 55 53 52 50 48 46 43 40 38 35 32 31 31 30 30 30 30 31 31 30 28 27 26
30 32 35 37 40 42 44 48 51 53 55 57 60 59 57 56 56 56 56 56 55 53 52 51 49 46 43 39 36 34 32 30 28 27 27 27 26 26 27 27 27 26 26 24
30 33 35 38 41 43 46 49 52 54 56 58 59 58 56 55 55 55 55 56 55 53 52 50 48 45 41 37 33 30 27 25 23 22 22 21 20 20 21 23 24 24 23 23
31 33 35 38 41 43 46 49 52 54 56 58 58 57 55 55 54 54 54 54 54 53 51 48 46 43 39 36 31 27 24 21 19 17 16 14 14 15 17 18 20 21 21 21
31 34 36 39 41 44 47 49 52 53 55 56 57 57 55 54 53 53 53 53 53 52 50 47 44 41 38 35 31 27 22 18 16 13 11 9 10 12 14 15 17 18 19 19
32 34 36 39 42 45 47 50 52 54 55 56 57 56 54 53 52 52 52 51 51 49 48 46 43 41 37 34 30 27 23 19 16 12 7 4 6 8 11 14 16 17 17 18
32 34 36 39 42 45 48 50 53 54 55 56 56 55 53 50 49 49 49 50 49 48 47 44 42 40 37 33 30 27 24 20 16 12 7 4 5 8 10 12 15 16 17 18
32 34 37 40 43 46 48 50 52 54 55 55 55 54 52 48 47 47 47 47 46 45 44 43 41 40 36 33 31 28 24 22 18 14 12 11 10 10 11 13 16 17 18 19
33 35 38 41 44 46 49 50 52 53 54 54 54 52 50 47 45 44 44 44 44 42 42 41 41 39 37 34 32 30 27 24 21 17 16 14 14 13 14 16 18 19 19 21
34 36 39 42 44 46 48 49 51 52 53 52 52 51 48 45 42 41 41 41 41 40 40 40 40 38 36 35 32 31 29 27 24 21 19 18 17 17 18 19 20 21 22 24
35 37 39 42 44 46 48 49 50 51 51 51 50 49 45 43 41 38 37 37 37 36 37 37 38 37 36 35 33 30 29 27 26 25 23 21 21 20 21 21 22 22 23 24
36 38 40 42 44 46 47 48 49 50 50 49 48 47 43 39 38 36 34 34 33 33 33 34 35 36 35 34 33 31 30 28 27 26 25 25 24 24 24 24 24 24 26 27
38 39 41 43 44 45 46 47 47 48 48 47 46 44 42 38 35 33 31 30 30 30 30 31 32 33 34 32 31 30 30 29 28 26 26 27 27 27 26 26 26 26 27 28
39 40 42 43 44 44 45 45 46 46 46 45 44 42 40 36 33 31 29 27 27 26 27 27 28 30 30 30 29 29 29 28 28 27 26 26 26 27 27 28 28 29 30 31
42 42 43 43 43 44 44 44 44 43 43 43 42 40 38 34 30 28 26 24 23 23 23 23 25 25 26 26 27 27 27 27 27 27 26 26 25 26 27 28 28 29 30 30
43 43 43 43 43 43 42 42 42 41 40 39 39 38 36 33 29 26 24 21 20 19 19 19 20 21 22 22 23 23 24 24 24 25 25 26 27 27 27 27 27 28 28 28
44 43 43 42 42 42 41 40 40 39 38 37 37 35 34 31 28 25 22 19 17 16 15 15 15 16 17 18 19 19 20 20 21 22 23 24 24 24 24 25 25 25 25 25

GEFSNGP_500_meanwind_060.txt.gz
Wind_Speed
13 14 15 16 18 19 21 23 26 28 30 32 34 37 40 43 45 48 50 52 54 55 56 57 58 60 60 61 61 61 60 59 57 54 51 49 46 44 42 40 38 37 37 37
15 16 17 18 20 22 23 25 27 29 31 34 36 39 42 45 48 50 52 53 54 56 56 58 59 60 60 60 60 60 59 58 56 54 52 49 46 44 42 40 38 36 35 34
16 17 18 19 21 23 24 26 29 31 34 36 38 40 45 48 50 52 54 55 56 56 57 58 59 60 60 60 59 59 57 56 55 53 51 49 46 44 43 41 40 38 36 35
17 18 19 21 23 24 26 28 31 33 36 38 40 42 46 50 52 54 55 56 56 56 57 59 60 60 59 58 58 57 57 55 53 51 50 48 47 44 42 42 40 39 37 36
18 20 21 23 26 28 29 30 33 35 38 40 42 43 45 50 52 54 55 56 56 57 58 59 59 59 57 57 57 57 56 54 52 50 48 47 45 44 42 41 40 39 38 38
20 22 25 26 28 30 32 33 35 37 40 42 46 48 48 51 53 53 55 56 57 57 58 59 58 57 57 57 57 56 54 52 50 48 46 44 42 41 40 39 38 38 38 38
21 23 25 27 29 31 34 36 37 39 42 44 47 50 53 55 55 55 56 57 57 58 58 57 57 57 57 57 56 54 51 48 46 44 42 40 38 37 37 37 37 37 36 36
22 24 26 28 30 32 33 35 38 40 43 45 48 50 53 55 55 55 56 56 57 57 57 56 57 57 57 55 53 50 48 45 42 38 36 35 34 33 33 33 34 35 34 34
24 25 27 28 30 32 34 36 38 41 44 47 49 51 53 55 55 55 55 56 56 56 56 56 56 56 55 53 50 47 44 41 38 35 33 32 30 29 29 30 31 32 32 32
24 25 27 28 30 33 35 37 39 42 46 48 50 52 54 55 55 55 55 55 55 55 55 54 54 53 53 52 48 45 42 39 36 33 30 28 25 25 25 25 26 27 28 29
24 25 27 29 31 33 36 38 40 44 47 49 51 52 54 55 55 54 55 54 54 55 54 53 53 52 53 51 47 44 41 39 34 31 27 23 21 20 19 20 20 21 23 25
25 26 28 30 32 34 36 38 41 44 47 49 52 53 54 55 54 54 54 53 53 53 53 52 52 52 52 50 47 43 40 37 33 28 24 20 18 15 14 14 16 18 20 22
25 26 28 30 32 34 36 39 42 45 48 50 52 53 54 54 54 53 53 52 52 53 52 51 51 52 51 49 46 42 38 35 30 26 21 18 14 11 9 9 12 14 16 19
25 27 28 30 32 35 37 39 42 45 48 50 52 53 53 54 53 52 52 50 51 52 51 50 50 51 50 48 45 41 38 33 29 25 21 17 13 8 4 4 7 10 13 15
26 27 29 31 33 35 37 40 43 45 47 49 51 52 52 53 52 51 50 49 49 50 49 49 49 50 49 46 44 41 38 33 29 25 21 17 13 8 3 1 4 7 10 12
27 28 30 32 34 36 39 41 43 45 47 49 51 52 51 51 51 50 49 48 48 47 47 47 48 48 47 45 43 40 37 33 29 26 22 19 15 11 8 5 5 7 9 11
28 30 32 33 35 38 40 42 43 45 47 49 51 51 51 50 49 48 47 46 45 45 46 45 46 46 45 45 43 40 37 33 29 26 24 21 18 15 12 10 9 10 10 12
30 31 33 35 37 39 40 42 44 46 47 49 50 51 50 48 47 47 45 44 43 42 43 43 43 44 43 43 42 40 37 33 29 26 24 22 19 17 15 13 13 12 13 12
32 33 35 36 37 39 41 42 44 46 47 48 49 49 49 48 47 46 44 42 40 39 39 39 40 41 41 40 40 39 37 34 30 27 24 23 21 18 17 16 14 14 13 13
34 35 36 37 38 39 41 43 44 46 47 47 48 47 47 46 44 43 41 40 38 37 36 36 37 38 37 37 37 37 35 34 31 28 26 24 22 20 18 17 17 16 15 15
35 36 38 39 39 39 41 43 44 46 47 46 46 45 45 44 43 41 39 37 36 34 33 33 34 35 35 34 34 34 33 32 30 28 26 25 23 22 21 20 19 18 18 18
37 38 39 40 39 40 42 43 45 46 46 45 45 44 43 42 41 40 37 35 33 32 30 30 30 31 32 32 31 31 31 30 29 27 25 24 23 23 23 22 22 22 22 22
39 39 39 40 40 41 43 44 46 46 45 44 43 42 41 40 39 37 35 32 31 29 28 27 27 28 28 29 28 28 28 28 28 27 25 23 22 22 22 22 22 22 23 24
40 39 38 39 41 42 44 45 45 45 44 43 41 40 39 38 38 36 34 31 29 27 25 24 23 23 24 25 25 25 26 26 26 26 25 24 23 22 22 22 22 23 24 24
40 40 40 41 42 43 43 44 44 44 43 41 40 39 37 36 35 34 32 29 27 25 23 21 20 20 20 20 21 21 22 24 24 24 23 23 23 22 22 22 22 22 22 23
42 41 41 42 43 43 43 43 43 42 41 39 38 37 36 34 33 33 31 27 25 23 21 19 17 16 16 16 17 18 18 19 20 21 21 21 21 21 20 21 21 21 22 22
42 41 41 42 43 43 42 41 40 40 38 37 35 34 34 33 31 30 29 26 24 22 19 17 15 14 13 12 13 13 14 15 16 17 17 18 18 18 18 18 19 19 20 21

GEFSNGP_500_meanwind_066.txt.gz
Wind_Speed
9 11 12 13 15 15 16 17 18 20 22 24 27 29 32 34 36 38 41 43 45 46 47 47 48 48 48 48 50 51 51 51 51 50 51 51 52 52 51 51 51 51 51 51
10 12 14 15 16 16 17 19 20 21 23 25 28 31 34 36 38 41 43 45 46 47 48 48 48 48 48 49 51 51 51 50 51 51 51 51 51 50 50 49 49 48 48 48
12 14 16 16 16 18 19 21 22 23 25 27 30 33 35 38 41 43 45 47 47 48 48 48 48 49 49 50 51 51 50 50 50 51 50 49 49 48 47 46 46 46 46 46
14 16 17 17 18 18 19 21 23 24 26 28 31 34 37 40 43 45 47 48 48 48 48 48 49 50 50 51 51 50 50 50 50 50 49 47 46 45 44 43 43 43 44 44
15 17 19 18 18 20 20 21 23 25 27 29 32 35 39 42 45 48 49 49 49 49 49 49 50 50 51 51 50 50 50 50 50 49 48 46 44 41 40 39 39 39 40 40
17 18 20 20 20 21 22 22 24 26 29 32 34 37 40 43 46 48 49 49 48 48 48 49 50 50 50 50 50 50 50 49 49 47 45 43 40 38 36 35 34 34 35 36
18 19 21 21 22 22 24 25 26 28 31 34 37 40 43 45 47 49 49 49 48 48 48 49 49 50 49 49 50 49 49 49 48 46 44 41 37 34 32 30 29 29 30 31
18 20 22 22 22 23 24 25 27 30 32 35 38 42 45 47 49 50 49 49 48 47 47 48 49 49 49 49 49 49 48 47 46 44 41 37 33 30 28 25 24 24 25 27
19 21 22 22 23 23 24 26 28 30 33 36 39 43 46 48 49 50 49 49 48 47 47 48 49 49 49 49 49 48 47 45 44 42 39 35 31 27 23 20 19 19 20 22
20 21 22 22 23 24 25 26 29 32 34 37 41 44 47 49 50 50 49 49 48 47 47 48 48 48 49 48 48 48 46 44 42 40 37 32 28 24 19 15 14 14 15 18
21 22 22 23 23 24 25 27 30 33 36 39 42 46 48 50 51 50 49 48 48 47 47 47 47 47 47 47 47 46 45 43 40 39 35 30 26 21 17 13 11 10 11 13
22 22 22 23 24 25 27 29 32 34 37 41 44 47 49 50 51 50 49 48 47 46 46 46 46 46 46 46 45 45 44 41 39 37 33 28 23 20 17 13 9 6 6 10
21 22 23 24 25 26 28 30 33 36 39 43 46 48 49 50 50 50 49 47 46 46 45 45 45 45 45 45 44 44 42 40 37 35 31 27 23 19 16 12 8 3 2 6
21 22 23 25 26 28 30 32 35 37 41 44 46 48 49 50 50 49 48 46 45 45 45 44 44 44 43 44 43 42 41 38 36 33 29 26 23 20 16 12 7 3 1 4
23 24 25 26 28 29 31 33 36 39 42 45 47 48 49 49 49 49 47 46 44 44 43 43 42 42 42 42 42 41 39 37 35 31 28 25 23 20 16 12 8 5 2 3
25 26 28 29 30 31 33 35 38 41 43 45 46 47 48 48 49 48 47 45 42 42 41 41 40 40 40 40 40 40 38 36 33 30 27 25 22 20 17 13 10 7 5 4
28 29 30 31 32 33 35 37 39 41 43 45 46 47 47 47 47 46 45 43 41 41 40 39 39 38 39 38 38 37 36 34 32 29 26 24 22 20 18 15 12 10 7 6
31 31 32 33 34 35 36 38 40 42 43 44 45 45 46 46 45 44 43 41 40 39 39 38 37 36 36 36 35 35 34 32 31 29 27 24 21 19 18 16 14 13 11 8
33 34 35 35 36 37 38 39 40 41 42 43 44 45 45 45 44 43 41 40 38 37 36 35 34 34 34 34 33 32 31 30 28 27 26 24 22 19 18 17 16 15 14 13
35 36 37 37 37 38 38 39 40 41 42 42 43 44 44 43 42 41 40 39 37 35 34 33 31 31 31 31 30 29 28 28 26 25 25 24 22 20 19 18 17 16 15 14
37 37 37 38 37 38 38 39 40 41 41 41 42 42 41 41 41 40 38 37 36 34 32 31 29 28 28 28 28 27 26 26 24 23 23 23 22 20 19 19 18 17 17 16
38 38 38 38 38 38 38 39 39 40 40 40 40 41 40 39 39 38 37 35 34 32 30 29 26 25 24 24 24 24 23 23 23 22 21 22 21 20 20 19 19 19 19 19
40 39 39 39 39 38 38 38 39 39 39 39 40 39 38 37 36 36 35 34 32 31 29 27 24 22 21 21 21 21 21 20 20 19 19 20 21 20 19 19 19 19 19 19
42 41 40 40 39 38 38 38 38 38 37 38 37 37 36 35 35 34 34 33 31 29 27 25 23 20 18 18 17 18 18 18 18 17 17 18 18 18 19 19 19 20 20 20
43 42 42 41 39 38 39 39 38 38 37 36 36 36 35 34 34 33 32 31 30 28 25 23 21 18 16 15 14 14 15 15 15 15 15 16 16 16 17 18 18 19 19 20
46 44 43 41 40 41 40 39 38 37 36 36 35 34 33 33 33 32 31 30 28 26 24 22 19 16 14 12 11 10 11 11 12 13 13 13 14 15 15 15 16 16 17 18
49 47 45 43 42 41 40 38 37 36 36 36 35 33 33 32 31 30 29 28 26 25 23 20 18 15 12 11 9 8 7 7 8 9 10 10 11 12 13 14 14 15 16 17